Simultaneous Nadir Overpasses (SNOs) Predictions

Prediction of SNOs between AQUA and METOP-C Satellite Orbit:

Table of predicted SNOs for the next 14.0 days since TLE Epoch: 1/25/2019
Index Date (AQUA) Time (AQUA) Lat,Lon (AQUA) SZA (AQUA ) Date (METOP-C) Time (METOP-C) Lat,Lon (METOP-C) SZA (METOP-C ) Distance(km) Time Diff (sec)
1 01/28/2019 13:21:07 -73.79, 154.03 87.95 01/28/2019 13:20:14 -73.77, 154.04 87.95 1.99 53
2 01/28/2019 14:10:36 73.85, -38.47 92.12 01/28/2019 14:10:51 73.86, -38.41 92.12 2.09 15
3 01/28/2019 15:00:15 -74.55, 127.54 87.13 01/28/2019 15:01:20 -74.53, 130.63 87.28 91.66 65
4 01/31/2019 08:55:22 -73.78,-139.51 88.71 01/31/2019 08:54:38 -73.76,-139.57 88.72 2.32 44
5 01/31/2019 09:44:51 73.85, 27.97 91.36 01/31/2019 09:45:15 73.85, 27.98 91.36 0.59 24
6 02/03/2019 04:29:38 -73.77, -73.06 89.52 02/03/2019 04:29:03 -73.76, -73.18 89.52 3.86 35
7 02/03/2019 05:19:07 73.85, 94.40 90.56 02/03/2019 05:19:40 73.85, 94.37 90.55 0.97 33
8 02/06/2019 00:03:54 -73.77, -6.63 90.36 02/06/2019 00:03:27 -73.80, -6.67 90.32 3.36 27
9 02/06/2019 00:53:23 73.86, 160.82 89.73 02/06/2019 00:54:05 73.84, 160.77 89.71 2.59 42




NCC Satellite Simultaneous Nadir Overpasses (SNOs) Prediction Service
